N5XJB Weather Reports


time (UTC)temp
C
wind
direction
speed
KPH
gust
KPH
rain 1hr
cm
rain 24hr
cm
rain mn
cm
humidity
%
barometer
mb
20260510021213 22 49 0.0 0.0 0.00 0.36 0.36 97 1011.0
20260510020707 22 48 0.0 0.0 0.00 0.36 0.36 97 1011.0
20260510020203 22 48 0.0 0.0 0.00 0.36 0.36 97 1010.7
20260510015659 22 48 0.0 0.0 0.30 0.36 0.36 97 1010.4
20260510015155 22 48 0.0 0.0 0.30 0.36 0.36 97 1010.4
20260510014650 22 45 0.0 0.0 0.30 0.36 0.36 97 1010.4
20260510014148 22 45 0.0 0.0 0.30 0.36 0.36 96 1010.0
20260510013643 22 45 0.0 0.0 0.30 0.36 0.36 96 1010.0
20260510013139 22 45 0.0 0.0 0.30 0.36 0.36 95 1009.7
20260510012638 22 45 0.0 0.0 0.28 0.30 0.30 95 1010.0
20260510012134 22 45 0.0 0.0 0.28 0.30 0.30 94 1010.0
20260510011629 23 45 0.0 0.0 0.23 0.28 0.28 92 1010.0
20260510011125 23 48 1.6 1.6 0.10 0.15 0.15 89 1010.4
20260510010621 23 48 0.0 0.0 0.00 0.03 0.03 85 1010.0
20260510010118 23 302 3.2 3.2 0.00 0.03 0.03 86 1010.0
20260510005614 25 320 6.4 6.4 0.00 0.00 0.00 84 1010.0
20260510005111 26 313 3.2 3.2 0.00 0.00 0.00 80 1009.7
20260510004609 27 120 0.0 0.0 0.00 0.00 0.00 75 1009.7
20260510004107 27 120 0.0 0.0 0.00 0.00 0.00 70 1009.7
20260510003604 28 120 0.0 0.0 0.00 0.00 0.00 67 1009.3
20260510003059 28 342 3.2 3.2 0.00 0.00 0.00 64 1009.3
20260510002554 30 44 4.8 4.8 0.00 0.00 0.00 65 1009.0
20260510002052 30 164 0.0 0.0 0.00 0.00 0.00 66 1009.0
20260510001549 30 194 1.6 1.6 0.00 0.00 0.00 66 1009.0
20260510001048 30 204 0.0 0.0 0.00 0.00 0.00 67 1009.3
20260510000542 30 198 0.0 0.0 0.00 0.00 0.00 66 1009.0
20260510000039 29 235 3.2 3.2 0.00 0.00 0.00 64 1009.0
20260509235536 30 168 0.0 0.0 0.00 0.00 0.00 63 1009.0
20260509235033 30 168 0.0 0.0 0.00 0.00 0.00 62 1009.0
20260509234529 30 168 0.0 0.0 0.00 0.00 0.00 62 1009.0
20260509234027 30 168 0.0 0.0 0.00 0.00 0.00 63 1008.7
20260509233524 30 168 0.0 0.0 0.00 0.00 0.00 61 1009.0
20260509233021 30 168 0.0 0.0 0.00 0.00 0.00 61 1009.0
20260509232518 30 144 1.6 1.6 0.00 0.00 0.00 62 1009.0
20260509232014 30 142 0.0 0.0 0.00 0.00 0.00 62 1009.0
20260509231511 30 141 3.2 3.2 0.00 0.00 0.00 60 1009.0
20260509231009 30 141 0.0 0.0 0.00 0.00 0.00 60 1009.0
20260509230505 30 141 0.0 0.0 0.00 0.00 0.00 59 1008.7
20260509230002 31 141 0.0 0.0 0.00 0.00 0.00 59 1008.7
20260509225458 31 256 0.0 0.0 0.00 0.00 0.00 58 1008.7
20260509224954 31 288 0.0 0.0 0.00 0.00 0.00 55 1008.7
20260509224449 32 288 0.0 0.0 0.00 0.00 0.00 55 1008.7
20260509223946 32 288 4.8 4.8 0.00 0.00 0.00 55 1008.7
20260509223443 32 282 0.0 0.0 0.00 0.00 0.00 54 1008.7
20260509222941 32 300 0.0 0.0 0.00 0.00 0.00 52 1008.7
20260509222436 32 280 3.2 3.2 0.00 0.00 0.00 52 1008.7
20260509221932 32 324 0.0 0.0 0.00 0.00 0.00 54 1008.7
20260509221429 33 288 0.0 0.0 0.00 0.00 0.00 53 1008.7
20260509220924 33 300 3.2 3.2 0.00 0.00 0.00 54 1008.7
20260509220420 32 288 0.0 0.0 0.00 0.00 0.00 53 1008.3
20260509215917 32 288 3.2 3.2 0.00 0.00 0.00 54 1008.7
20260509215412 32 306 3.2 3.2 0.00 0.00 0.00 55 1008.3
20260509214910 31 307 0.0 0.0 0.00 0.00 0.00 56 1008.7
20260509214407 33 306 1.6 1.6 0.00 0.00 0.00 54 1008.7
20260509213904 32 300 3.2 3.2 0.00 0.00 0.00 56 1008.7
20260509213359 32 300 3.2 3.2 0.00 0.00 0.00 56 1008.7
20260509212857 32 300 3.2 3.2 0.00 0.00 0.00 57 1008.7
20260509212354 32 208 3.2 3.2 0.00 0.00 0.00 57 1008.7
20260509211850 32 288 0.0 0.0 0.00 0.00 0.00 57 1008.7
20260509211346 32 312 0.0 0.0 0.00 0.00 0.00 57 1008.7
20260509210843 32 312 4.8 4.8 0.00 0.00 0.00 55 1008.7
20260509210341 32 286 0.0 0.0 0.00 0.00 0.00 57 1008.7
20260509205840 31 282 3.2 3.2 0.00 0.00 0.00 59 1008.7
20260509205335 32 282 3.2 3.2 0.00 0.00 0.00 58 1009.0
20260509204832 31 276 3.2 3.2 0.00 0.00 0.00 56 1009.3
20260509204328 31 312 0.0 0.0 0.00 0.00 0.00 58 1009.3
20260509203824 31 300 3.2 3.2 0.00 0.00 0.00 59 1009.3
20260509203321 31 288 0.0 0.0 0.00 0.00 0.00 58 1009.0
20260509202817 31 288 0.0 0.0 0.00 0.00 0.00 57 1009.3
20260509202314 31 280 0.0 0.0 0.00 0.00 0.00 59 1009.3
20260509201813 32 286 3.2 3.2 0.00 0.00 0.00 57 1009.3
20260509201310 32 255 0.0 0.0 0.00 0.00 0.00 58 1009.3
20260509200806 32 126 3.2 3.2 0.00 0.00 0.00 58 1009.7
20260509200302 32 280 0.0 0.0 0.00 0.00 0.00 57 1009.7
20260509195758 32 286 0.0 0.0 0.00 0.00 0.00 59 1009.7
20260509195254 32 270 3.2 3.2 0.00 0.00 0.00 58 1009.7
20260509194748 32 280 4.8 4.8 0.00 0.00 0.00 58 1009.7
20260509194244 31 54 0.0 0.0 0.00 0.00 0.00 62 1010.0
20260509193742 31 282 1.6 1.6 0.00 0.00 0.00 62 1009.7
20260509193241 31 282 3.2 3.2 0.00 0.00 0.00 62 1010.0
20260509192738 30 286 0.0 0.0 0.00 0.00 0.00 64 1010.0
20260509192232 30 280 0.0 0.0 0.00 0.00 0.00 66 1009.7
20260509191728 29 324 0.0 0.0 0.00 0.00 0.00 66 1010.4
20260509191225 30 188 0.0 0.0 0.00 0.00 0.00 62 1010.0
20260509190721 31 275 0.0 0.0 0.00 0.00 0.00 62 1010.0
20260509190218 30 306 4.8 4.8 0.00 0.00 0.00 63 1009.7
20260509185716 30 288 0.0 0.0 0.00 0.00 0.00 65 1010.0
20260509185212 30 286 0.0 0.0 0.00 0.00 0.00 67 1010.4
20260509184709 30 282 3.2 3.2 0.00 0.00 0.00 66 1010.4
20260509184206 30 282 0.0 0.0 0.00 0.00 0.00 65 1010.7
20260509183702 30 294 4.8 4.8 0.00 0.00 0.00 64 1010.7
20260509183158 30 215 3.2 3.2 0.00 0.00 0.00 66 1010.7
20260509182653 28 129 0.0 0.0 0.00 0.00 0.00 68 1010.4
20260509182151 30 73 3.2 3.2 0.00 0.00 0.00 69 1010.7
20260509181649 29 294 3.2 3.2 0.00 0.00 0.00 69 1010.7
20260509181146 29 50 1.6 1.6 0.00 0.00 0.00 66 1010.7
20260509180643 29 112 1.6 1.6 0.00 0.00 0.00 69 1011.0
20260509180139 29 274 3.2 3.2 0.00 0.00 0.00 70 1011.0
20260509175635 29 100 0.0 0.0 0.00 0.00 0.00 70 1011.0
20260509175132 30 150 3.2 3.2 0.00 0.00 0.00 68 1011.0
20260509174628 30 132 3.2 3.2 0.00 0.00 0.00 68 1011.4
20260509174123 29 256 3.2 3.2 0.00 0.00 0.00 67 1011.4
20260509173619 30 128 3.2 3.2 0.00 0.00 0.00 70 1011.0
20260509173115 30 146 4.8 4.8 0.00 0.00 0.00 71 1011.4
20260509172612 30 336 3.2 3.2 0.00 0.00 0.00 72 1011.4
20260509172108 30 228 1.6 1.6 0.00 0.00 0.00 73 1011.0
20260509171604 29 166 0.0 0.0 0.00 0.00 0.00 74 1011.0
20260509171100 29 154 0.0 0.0 0.00 0.00 0.00 74 1011.4
20260509170556 29 105 3.2 3.2 0.00 0.00 0.00 76 1011.0
20260509170053 29 154 0.0 0.0 0.00 0.00 0.00 77 1011.0
20260509165551 28 126 3.2 3.2 0.00 0.00 0.00 77 1011.0
20260509165047 28 87 3.2 3.2 0.00 0.00 0.00 80 1011.0
20260509164543 28 152 0.0 0.0 0.00 0.00 0.00 80 1011.4
20260509164044 27 285 0.0 0.0 0.00 0.00 0.00 81 1011.0
20260509163543 26 285 0.0 0.0 0.00 0.00 0.00 84 1011.4
20260509163037 26 285 0.0 0.0 0.00 0.00 0.00 84 1011.4
20260509162535 26 292 0.0 0.0 0.00 0.00 0.00 84 1011.7
20260509162031 27 292 0.0 0.0 0.00 0.00 0.00 83 1011.7
20260509161527 26 291 0.0 0.0 0.00 0.00 0.00 85 1011.4
20260509161022 26 300 0.0 0.0 0.00 0.00 0.00 84 1012.1
20260509160518 26 300 0.0 0.0 0.00 0.00 0.00 85 1011.7
20260509160014 26 276 0.0 0.0 0.00 0.00 0.00 84 1011.4
20260509155510 26 257 0.0 0.0 0.00 0.00 0.00 85 1011.4
20260509155006 26 147 0.0 0.0 0.00 0.00 0.00 85 1011.7
20260509154503 26 147 0.0 0.0 0.00 0.00 0.00 87 1011.7
20260509154001 26 147 0.0 0.0 0.00 0.00 0.00 87 1011.7
20260509153457 26 147 0.0 0.0 0.00 0.00 0.00 86 1011.7
20260509152954 26 147 0.0 0.0 0.00 0.00 0.00 87 1011.7
20260509152449 26 147 0.0 0.0 0.00 0.00 0.00 87 1011.4
20260509151947 25 147 0.0 0.0 0.00 0.00 0.00 88 1011.7
20260509151443 26 147 0.0 0.0 0.00 0.00 0.00 89 1011.4
20260509150941 25 147 0.0 0.0 0.00 0.00 0.00 90 1011.4
20260509150438 25 147 0.0 0.0 0.00 0.00 0.00 90 1011.4
20260509145936 25 147 0.0 0.0 0.00 0.00 0.00 89 1011.4
20260509145431 25 147 0.0 0.0 0.00 0.00 0.00 90 1011.4
20260509144927 26 147 0.0 0.0 0.00 0.00 0.00 90 1011.4
20260509144424 25 147 0.0 0.0 0.00 0.00 0.00 92 1011.0
20260509143921 25 147 0.0 0.0 0.00 0.00 0.00 92 1011.0
20260509143418 25 147 0.0 0.0 0.00 0.00 0.00 92 1011.4
20260509142914 25 147 0.0 0.0 0.00 0.00 0.00 92 1011.4
20260509142411 25 147 0.0 0.0 0.00 0.00 0.00 92 1011.0
20260509141907 25 147 0.0 0.0 0.00 0.00 0.00 93 1011.0
20260509141404 25 147 0.0 0.0 0.00 0.00 0.00 94 1010.7
20260509140901 25 147 0.0 0.0 0.00 0.00 0.00 94 1010.7
20260509140357 25 147 0.0 0.0 0.00 0.00 0.00 95 1010.7
20260509135855 24 147 0.0 0.0 0.00 0.00 0.00 95 1010.7
20260509135353 24 147 0.0 0.0 0.00 0.00 0.00 95 1011.0
20260509134850 24 147 0.0 0.0 0.00 0.00 0.00 95 1011.4
20260509134347 24 147 1.6 1.6 0.00 0.00 0.00 95 1011.0
20260509133843 24 146 0.0 0.0 0.00 0.00 0.00 95 1010.7
20260509133340 24 146 1.6 1.6 0.00 0.00 0.00 95 1011.0
20260509132839 24 146 0.0 0.0 0.00 0.00 0.00 96 1011.7
20260509132337 24 146 0.0 0.0 0.00 0.00 0.00 96 1011.7
20260509131834 24 146 0.0 0.0 0.00 0.00 0.00 97 1011.7
20260509131331 23 146 0.0 0.0 0.00 0.00 0.00 97 1011.7
20260509130827 23 146 0.0 0.0 0.00 0.00 0.00 98 1011.7
20260509130323 23 146 0.0 0.0 0.00 0.00 0.00 98 1011.7
20260509125820 23 146 0.0 0.0 0.00 0.00 0.00 98 1011.7
20260509125316 23 146 0.0 0.0 0.00 0.00 0.00 98 1011.4
20260509124813 23 146 0.0 0.0 0.00 0.00 0.00 98 1011.4
20260509124309 23 146 0.0 0.0 0.00 0.00 0.00 98 1011.4
20260509123808 23 146 0.0 0.0 0.00 0.00 0.00 98 1011.4
20260509123305 23 146 0.0 0.0 0.00 0.00 0.00 98 1011.4
20260509122800 23 146 0.0 0.0 0.00 0.00 0.00 98 1011.4
20260509122257 22 146 0.0 0.0 0.00 0.00 0.00 99 1011.4
20260509121754 22 146 0.0 0.0 0.00 0.00 0.00 98 1011.4
20260509121251 22 146 0.0 0.0 0.00 0.00 0.00 98 1011.0
20260509120749 22 146 0.0 0.0 0.00 0.00 0.00 98 1010.7
20260509120247 22 146 0.0 0.0 0.00 0.00 0.00 98 1011.0
20260509115745 22 146 0.0 0.0 0.00 0.00 0.00 98 1010.7
20260509115241 22 146 0.0 0.0 0.00 0.00 0.00 98 1010.7
20260509114740 22 146 0.0 0.0 0.00 0.00 0.00 98 1010.7
20260509114238 22 146 0.0 0.0 0.00 0.00 0.00 98 1011.0
20260509113737 22 146 0.0 0.0 0.00 0.00 0.00 98 1011.0
20260509113233 22 146 0.0 0.0 0.00 0.00 0.00 98 1011.0
20260509112730 22 146 0.0 0.0 0.00 0.00 0.00 98 1011.4
20260509112227 22 146 0.0 0.0 0.00 0.00 0.00 98 1011.4
20260509111724 22 146 0.0 0.0 0.00 0.00 0.00 98 1011.4
20260509111221 22 146 0.0 0.0 0.00 0.00 0.00 98 1011.4
20260509110719 23 146 0.0 0.0 0.00 0.00 0.00 98 1011.4
20260509110215 23 146 0.0 0.0 0.00 0.00 0.00 98 1011.4
20260509105713 22 146 0.0 0.0 0.00 0.00 0.00 98 1011.4
20260509105210 22 146 0.0 0.0 0.00 0.00 0.00 98 1011.0
20260509104707 22 146 0.0 0.0 0.00 0.00 0.00 98 1011.4
20260509104204 22 146 0.0 0.0 0.00 0.00 0.00 98 1011.0
20260509103702 22 146 0.0 0.0 0.00 0.00 0.00 98 1010.7
20260509103159 22 146 0.0 0.0 0.00 0.00 0.00 98 1010.7
20260509102658 22 146 0.0 0.0 0.00 0.00 0.00 98 1011.0
20260509102154 22 146 0.0 0.0 0.00 0.00 0.00 98 1010.7
20260509101650 22 146 0.0 0.0 0.00 0.00 0.00 98 1010.4
20260509101147 22 146 0.0 0.0 0.00 0.00 0.00 98 1010.4
20260509100644 22 146 0.0 0.0 0.00 0.00 0.00 98 1010.0
20260509100141 22 146 0.0 0.0 0.00 0.00 0.00 98 1010.0
20260509095638 22 146 0.0 0.0 0.00 0.00 0.00 98 1010.0
20260509095135 23 146 0.0 0.0 0.00 0.00 0.00 97 1010.0
20260509094632 23 146 0.0 0.0 0.00 0.00 0.00 97 1010.4
20260509094129 23 146 0.0 0.0 0.00 0.00 0.00 97 1010.0
20260509093627 23 146 0.0 0.0 0.00 0.00 0.00 97 1010.0
20260509093124 23 146 0.0 0.0 0.00 0.00 0.00 97 1010.4
20260509092622 23 146 0.0 0.0 0.00 0.00 0.00 97 1010.7
20260509092120 23 146 0.0 0.0 0.00 0.00 0.00 97 1011.0
20260509091618 23 146 0.0 0.0 0.00 0.00 0.00 97 1011.0
20260509091114 23 146 0.0 0.0 0.00 0.00 0.00 97 1010.7
20260509090612 23 146 0.0 0.0 0.00 0.00 0.00 97 1010.7
20260509090109 23 146 0.0 0.0 0.00 0.00 0.00 97 1010.7
20260509085607 23 146 0.0 0.0 0.00 0.00 0.00 97 1010.7
20260509085102 23 146 0.0 0.0 0.00 0.00 0.00 97 1010.7
20260509084600 23 146 0.0 0.0 0.00 0.00 0.00 97 1011.0
20260509084057 23 146 0.0 0.0 0.00 0.00 0.00 97 1011.0
20260509083554 23 146 0.0 0.0 0.00 0.00 0.00 97 1010.7
20260509083050 23 146 0.0 0.0 0.00 0.00 0.00 97 1010.7
20260509082548 23 146 0.0 0.0 0.00 0.00 0.00 97 1010.7
20260509082045 23 146 0.0 0.0 0.00 0.00 0.00 97 1010.7
20260509081542 23 146 0.0 0.0 0.00 0.00 0.00 97 1010.4
20260509081038 23 146 0.0 0.0 0.00 0.00 0.00 97 1010.4
20260509080537 23 146 0.0 0.0 0.00 0.00 0.00 97 1010.7
20260509080035 23 146 0.0 0.0 0.00 0.00 0.00 97 1010.7
20260509075531 23 146 0.0 0.0 0.00 0.00 0.00 97 1010.7
20260509075030 23 146 0.0 0.0 0.00 0.00 0.00 97 1010.7
20260509074526 23 146 0.0 0.0 0.00 0.00 0.00 97 1010.7
20260509074023 23 146 0.0 0.0 0.00 0.00 0.00 97 1010.7
20260509073519 23 146 0.0 0.0 0.00 0.00 0.00 97 1010.7
20260509073016 23 146 0.0 0.0 0.00 0.00 0.00 97 1010.7
20260509072513 23 146 0.0 0.0 0.00 0.00 0.00 97 1010.7
20260509072009 23 146 0.0 0.0 0.00 0.00 0.00 97 1010.7
20260509071506 23 146 0.0 0.0 0.00 0.00 0.00 97 1010.7
20260509071004 23 146 0.0 0.0 0.00 0.00 0.00 97 1011.0
20260509070501 23 146 0.0 0.0 0.00 0.00 0.00 97 1010.7
20260509065956 23 146 0.0 0.0 0.00 0.00 0.00 97 1011.0
20260509065452 23 146 0.0 0.0 0.00 0.00 0.00 97 1010.7
20260509064948 23 146 0.0 0.0 0.00 0.00 0.00 97 1011.0
20260509064446 23 146 0.0 0.0 0.00 0.00 0.00 96 1011.0
20260509063944 23 146 0.0 0.0 0.00 0.00 0.00 96 1011.0
20260509063439 23 146 0.0 0.0 0.00 0.00 0.00 96 1011.0
20260509062936 23 146 0.0 0.0 0.00 0.00 0.00 96 1011.0
20260509062434 23 146 0.0 0.0 0.00 0.00 0.00 96 1011.0
20260509061931 23 146 0.0 0.0 0.00 0.00 0.00 96 1011.4
20260509061428 23 146 0.0 0.0 0.00 0.00 0.00 96 1011.4
20260509060925 23 146 0.0 0.0 0.00 0.00 0.00 96 1011.4
20260509060423 23 146 0.0 0.0 0.00 0.00 0.00 96 1011.4
20260509055918 23 146 0.0 0.0 0.00 0.00 0.00 96 1011.4
20260509055413 23 146 0.0 0.0 0.00 0.00 0.00 96 1011.4
20260509054910 23 146 0.0 0.0 0.00 0.00 0.00 96 1011.4
20260509054407 23 146 0.0 0.0 0.00 0.00 0.00 96 1011.4
20260509053905 23 146 0.0 0.0 0.00 0.00 0.00 96 1011.4
20260509053403 23 146 0.0 0.0 0.00 0.00 0.00 96 1011.4
20260509052901 23 146 3.2 3.2 0.00 0.00 0.00 96 1011.0
20260509052357 23 146 0.0 0.0 0.00 0.00 0.00 96 1011.4
20260509051855 23 146 0.0 0.0 0.00 0.00 0.00 96 1011.0
20260509051353 23 146 0.0 0.0 0.00 0.00 0.00 96 1011.4
20260509050850 23 146 0.0 0.0 0.00 0.00 0.00 96 1011.4
20260509050346 23 147 0.0 0.0 0.00 0.00 0.00 96 1011.4
20260509045843 23 147 0.0 0.0 0.00 0.00 0.00 96 1011.4
20260509045340 23 147 0.0 0.0 0.00 0.00 0.00 96 1011.4
20260509044837 23 147 0.0 0.0 0.00 0.00 0.00 96 1011.4
20260509044335 23 147 0.0 0.0 0.00 0.00 0.00 96 1011.4
20260509043831 23 147 0.0 0.0 0.00 0.00 0.00 96 1011.4
20260509043327 22 147 0.0 0.0 0.00 0.00 0.00 96 1011.4
20260509042823 22 147 3.2 3.2 0.00 0.00 0.00 96 1011.4
20260509042320 22 147 3.2 3.2 0.00 0.00 0.00 96 1011.7
20260509041817 22 147 0.0 0.0 0.00 0.00 0.00 96 1011.7
20260509041314 22 147 0.0 0.0 0.00 0.00 0.00 96 1011.4
20260509040812 22 147 0.0 0.0 0.00 0.00 0.00 97 1010.7
20260509040309 22 147 0.0 0.0 0.00 0.00 0.00 97 1010.7
20260509035806 22 147 0.0 0.0 0.00 0.00 0.00 96 1011.0
20260509035306 22 96 0.0 0.0 0.00 0.00 0.00 96 1011.0
20260509034759 22 96 3.2 3.2 0.00 0.00 0.00 96 1011.0
20260509034257 22 133 1.6 1.6 0.00 0.00 0.00 96 1011.0
20260509033754 22 133 0.0 0.0 0.00 0.00 0.00 96 1011.0
20260509033251 22 133 1.6 1.6 0.00 0.00 0.00 96 1011.0
20260509032748 22 133 3.2 3.2 0.00 0.00 0.00 96 1011.0
20260509032245 22 133 0.0 0.0 0.00 0.00 0.00 96 1011.0
20260509031742 22 133 0.0 0.0 0.00 0.00 0.00 96 1011.0
20260509031240 22 133 0.0 0.0 0.00 0.00 0.00 96 1011.0
20260509030738 22 133 0.0 0.0 0.00 0.00 0.00 96 1010.7
20260509030235 22 133 0.0 0.0 0.00 0.00 0.00 96 1010.7
20260509025732 22 133 3.2 3.2 0.00 0.00 0.00 96 1011.0
20260509025227 22 145 3.2 3.2 0.00 0.00 0.00 96 1010.7
20260509024722 22 145 0.0 0.0 0.00 0.00 0.00 96 1010.7
20260509024218 22 145 3.2 3.2 0.00 0.00 0.00 96 1010.7
20260509023716 22 145 3.2 3.2 0.00 0.00 0.00 96 1010.7
20260509023214 22 145 0.0 0.0 0.00 0.00 0.00 96 1011.0
20260509022709 22 145 0.0 0.0 0.00 0.00 0.00 96 1010.7
20260509022208 22 145 0.0 0.0 0.00 0.00 0.00 96 1010.7
20260509021704 23 144 3.2 3.2 0.00 0.00 0.00 95 1010.7